{"data":{"norad_id":48333,"epoch":"2026-09-19T13:38:17.822976Z","epoch_age_seconds":114148,"freshness":"FRESH","line1":"1 48333U 21036BK  26262.56826184  .00000768  00000+0  36495-4 0  9992","line2":"2 48333  53.1587 278.7582 0001297  85.6515 274.4634 15.31706183297755","mean_motion":15.31706183,"eccentricity":0.0001297,"inclination_deg":53.1587,"raan_deg":278.7582,"arg_perigee_deg":85.6515,"mean_anomaly_deg":274.4634,"bstar":3.6495e-5,"rev_number":29775,"period_min":94.012808460407,"perigee_km":469.83326713062,"apogee_km":471.60986104215,"semimajor_km":6848.8585640864,"source":"CELESTRAK","updated_at":"2026-09-20T09:00:38.938133Z"}}